Theta_e
329 328 328 330 334 335 337 338 335 333 328 328 328 327 326 325 327 333 331 327 327 331 329 329 328 326 326 320 316 315 316 315 314 316 323 326 321 319 323 323 321 320 321 319 314 310 309 309 311
329 335 336 336 339 342 339 336 336 327 328 328 328 328 326 325 329 330 328 327 327 327 327 328 327 327 325 322 319 314 315 316 320 320 317 317 317 319 323 325 324 323 325 324 321 319 320 309 310
327 334 334 336 338 341 339 335 333 328 328 328 328 328 327 326 329 329 328 326 325 326 326 328 329 328 325 324 322 316 315 322 323 322 317 317 318 318 321 322 321 323 326 328 327 322 328 318 311
332 338 338 335 335 335 334 332 330 328 328 328 327 326 327 327 326 328 326 322 326 328 329 330 329 326 322 322 321 318 321 324 322 322 320 319 319 319 320 319 320 321 323 324 329 326 324 322 319
336 337 332 334 335 335 332 333 328 326 326 326 326 326 327 327 326 325 320 323 327 326 326 326 325 322 321 320 317 315 320 320 323 325 322 322 323 315 315 318 320 321 322 326 324 328 325 317 321
335 332 329 330 331 331 330 332 331 327 328 326 325 328 328 326 323 324 322 323 325 325 325 324 321 320 319 317 316 316 316 316 315 315 315 315 315 319 320 321 321 321 321 324 326 327 327 320 317
331 328 330 330 331 330 330 332 329 329 327 326 326 325 328 328 326 325 325 325 325 324 321 320 321 321 320 320 321 322 323 325 324 323 323 322 321 320 321 320 319 319 323 321 323 326 328 320 316
331 328 329 329 329 328 330 331 331 330 328 327 327 325 328 328 326 323 324 323 323 322 322 322 322 321 321 321 322 323 326 325 324 324 322 321 321 320 318 318 319 319 323 320 326 327 328 323 310
332 328 329 329 328 329 329 326 328 328 328 328 327 326 326 327 327 323 324 324 323 323 323 322 322 322 322 321 319 326 326 325 325 324 323 322 320 319 321 323 324 325 323 321 325 326 327 326 311
330 329 329 329 329 328 328 326 326 327 328 327 328 325 325 326 326 322 324 324 323 323 323 323 322 322 320 319 322 327 327 326 325 325 320 318 319 319 321 322 323 325 324 325 325 325 326 314 312
330 329 328 328 329 329 329 325 326 325 326 328 326 325 325 324 323 323 324 324 324 323 323 323 322 321 320 316 324 325 326 325 326 324 321 323 320 320 321 323 324 322 323 324 324 325 322 318 316
329 328 329 328 329 329 326 327 325 325 326 328 327 325 325 324 324 324 324 324 324 323 323 323 321 321 316 321 320 321 324 326 326 323 324 323 323 320 324 323 324 323 324 323 324 324 320 321 319
329 329 329 329 329 329 328 326 325 324 327 327 326 325 324 325 325 324 324 324 323 323 323 323 320 320 319 315 324 325 326 324 324 323 325 326 325 320 322 322 322 323 322 324 324 324 322 322 321
329 328 329 330 330 328 327 326 326 326 328 327 325 324 324 324 324 324 325 324 323 323 323 322 321 316 320 318 326 326 326 326 325 324 324 325 325 319 321 321 320 321 323 323 323 324 324 324 320
326 325 326 328 328 325 327 326 326 327 328 327 326 325 325 324 324 324 324 324 324 323 323 321 321 321 322 322 324 327 328 327 325 325 324 323 325 323 321 322 322 321 322 324 323 324 324 323 322
323 325 327 326 326 327 326 326 326 327 327 327 327 327 326 325 325 324 324 324 324 324 323 322 323 324 325 323 326 328 329 329 327 326 326 325 322 321 320 322 323 320 322 322 323 323 325 325 325
323 324 325 327 327 327 326 327 326 327 327 327 328 328 327 326 325 325 324 325 325 325 322 323 322 326 324 323 328 329 330 329 327 326 325 322 321 321 320 322 323 321 322 321 321 322 324 326 326
323 324 326 327 327 326 326 327 326 328 327 327 327 328 327 326 325 325 325 325 325 325 321 321 322 325 322 324 329 329 327 328 328 326 326 325 323 322 321 322 323 321 323 321 322 323 323 326 324
323 325 327 327 327 327 329 328 327 327 327 326 327 328 327 327 325 325 325 324 325 325 322 321 326 327 326 327 330 330 330 328 327 327 327 325 325 324 324 322 323 321 322 322 322 324 326 325 327
324 324 324 325 327 327 328 328 327 327 327 327 327 327 327 326 325 324 324 325 325 325 322 324 328 329 328 326 329 330 329 328 328 327 328 328 325 326 324 323 323 321 322 323 324 325 327 327 328
325 325 324 325 327 327 327 326 328 328 327 327 327 327 327 326 325 325 325 325 326 326 322 327 328 329 323 326 329 328 328 327 328 327 327 328 324 324 324 324 322 322 322 321 325 325 326 326 328
324 325 325 326 327 327 327 325 327 327 325 325 326 326 326 325 325 325 325 326 327 326 325 326 329 327 328 327 324 327 327 328 328 327 327 325 323 323 323 323 323 323 323 324 325 325 326 327 328
324 325 325 327 327 326 325 324 325 326 326 325 322 327 326 326 326 325 325 326 328 325 324 328 327 326 328 328 330 331 330 328 328 327 326 327 324 324 324 322 323 325 324 325 327 326 327 323 327
325 325 326 326 324 325 326 325 325 326 326 325 323 326 327 327 326 326 326 328 328 325 324 326 327 326 327 331 330 331 329 326 326 325 326 327 326 325 324 323 323 326 326 325 325 324 326 323 327
325 323 325 325 322 324 326 327 326 325 326 323 325 328 328 328 327 326 327 328 327 325 323 324 328 327 326 330 329 330 329 325 324 325 325 327 326 325 324 323 322 325 326 324 324 325 327 325 325
323 323 325 327 327 325 326 326 326 326 324 325 328 328 329 328 327 327 328 328 326 325 322 323 327 326 326 327 329 329 329 325 325 324 326 327 326 325 323 323 322 324 326 323 324 325 327 325 328
322 324 323 324 325 325 326 328 327 324 323 323 329 329 329 328 327 328 328 328 325 325 321 322 326 327 326 326 327 329 330 328 327 324 324 326 324 323 324 322 321 321 320 323 325 325 324 327 330
322 325 325 321 324 325 327 328 329 324 323 324 330 328 329 328 328 328 328 327 325 325 322 323 325 326 325 326 328 329 329 329 329 327 324 325 324 325 324 324 325 325 324 324 324 325 327 328 329
322 325 322 320 320 323 325 327 325 324 326 329 330 329 328 328 327 328 328 326 325 325 324 323 326 325 324 326 327 329 330 331 329 326 324 324 325 325 325 326 325 325 324 324 325 325 323 324 326
324 325 322 323 325 324 326 326 327 328 328 328 331 330 328 327 327 328 327 326 325 324 324 323 326 324 324 325 326 329 330 331 328 326 326 325 326 326 325 325 325 325 325 325 325 324 323 326 327
Wind_Speed
9 8 6 3 1 2 5 8 6 2 5 14 12 8 3 13 4 5 18 7 5 8 7 7 7 8 8 10 11 11 11 12 12 12 11 13 15 13 12 13 14 14 14 13 13 13 14 13 13
10 10 3 5 2 1 4 10 15 5 9 10 4 6 10 4 21 21 16 9 8 5 6 8 9 10 11 14 14 14 14 14 13 13 15 17 18 18 14 14 16 14 14 14 13 14 15 15 14
13 4 6 4 3 5 4 12 14 11 11 5 3 6 5 11 21 23 17 10 8 6 7 11 11 10 13 15 16 16 16 14 15 17 18 19 19 18 18 19 19 19 18 16 16 14 15 16 14
5 4 7 1 10 12 4 9 5 5 7 8 7 6 9 10 14 15 11 5 5 3 5 9 10 9 13 16 17 17 16 18 20 21 21 21 20 19 20 21 21 21 20 19 18 15 16 16 14
5 6 4 5 12 16 4 15 8 5 9 4 8 4 13 13 14 13 9 9 11 10 9 11 13 14 15 16 17 17 19 22 24 23 22 20 20 22 22 22 23 23 21 21 20 19 16 16 17
4 4 3 6 14 7 5 4 12 4 10 11 12 14 8 15 14 11 7 9 14 15 15 16 14 13 14 13 13 14 14 17 20 21 24 25 25 25 24 25 26 27 26 24 22 22 19 20 20
9 2 7 13 15 15 12 5 2 4 3 2 4 2 14 14 11 12 12 13 16 12 11 9 10 13 14 12 14 13 14 16 18 21 24 26 26 26 25 25 26 27 26 24 23 24 21 21 22
12 2 10 13 11 13 18 5 17 14 7 8 4 5 8 19 18 11 14 10 5 4 6 9 9 11 10 12 15 18 16 17 21 18 18 16 18 15 15 15 16 17 18 20 22 24 23 19 23
24 6 13 17 14 17 22 7 16 19 4 8 11 14 15 25 19 12 12 9 5 8 9 6 6 12 14 16 18 14 18 20 24 20 18 18 16 13 11 10 11 14 14 18 21 22 24 19 21
19 9 22 15 18 17 17 15 20 14 19 20 16 14 17 17 16 12 13 13 14 13 10 10 10 15 19 19 14 12 12 19 20 19 14 10 13 10 10 9 13 14 14 17 19 20 22 19 21
26 18 18 20 31 32 20 13 20 17 11 15 8 19 20 19 15 12 15 12 16 20 18 15 15 18 19 16 14 17 17 16 18 20 12 11 11 7 6 7 8 12 14 14 17 20 20 21 19
19 28 30 31 34 31 8 13 14 25 24 16 11 10 19 19 19 18 14 11 19 17 15 14 16 16 17 15 15 14 13 14 18 16 10 11 10 9 7 7 9 11 11 14 18 20 20 19 17
22 23 32 35 35 26 14 14 19 29 23 17 4 7 12 15 16 17 15 16 16 15 15 14 14 14 13 10 9 10 10 12 12 10 10 13 14 11 11 11 11 13 12 12 15 19 20 19 14
28 25 28 35 30 18 12 18 27 29 21 21 11 8 11 13 17 21 23 20 16 16 14 14 13 13 11 8 11 12 12 12 13 13 15 14 13 14 13 11 13 14 15 14 14 18 19 20 17
27 22 23 22 21 13 25 17 17 23 18 16 14 18 22 17 20 27 27 25 24 20 16 12 11 11 11 10 14 15 14 13 14 13 15 16 16 16 14 12 11 10 15 19 15 17 18 18 18
18 18 19 10 11 27 16 19 14 25 21 23 25 25 20 23 27 23 24 26 24 20 14 10 9 9 10 10 10 12 14 15 14 12 14 14 15 16 13 11 12 11 14 20 19 20 19 20 19
11 13 14 15 19 22 12 20 18 26 19 22 24 26 25 26 25 24 27 26 23 15 13 11 8 8 7 8 8 12 13 16 13 12 11 11 10 11 11 10 9 10 11 18 20 23 23 18 19
13 10 13 18 24 18 18 16 9 27 26 26 29 23 27 25 28 29 26 23 20 13 11 9 8 6 5 3 7 12 18 15 12 10 9 9 9 9 11 7 6 6 7 13 18 20 23 16 16
14 14 19 23 21 22 5 20 10 15 18 14 18 18 18 17 30 28 25 23 18 13 10 8 6 5 5 2 6 12 16 15 13 10 9 9 9 9 9 6 4 4 6 14 16 20 20 17 18
17 19 24 23 21 10 17 18 9 8 7 17 23 26 21 25 31 27 26 23 18 13 11 8 7 4 7 3 5 11 17 16 12 10 9 10 9 8 10 6 5 6 7 12 15 19 18 18 19
20 20 21 20 22 18 5 7 4 4 12 23 31 32 19 28 34 31 29 24 20 14 11 9 6 8 4 1 3 7 11 12 6 7 8 8 4 6 6 6 9 9 9 10 13 18 18 19 21
21 20 23 23 17 8 2 5 4 6 9 9 14 23 26 29 30 31 30 26 20 14 11 9 10 6 4 3 6 9 12 15 13 7 8 4 1 6 8 11 12 9 10 12 13 17 15 16 19
22 18 21 22 16 5 3 3 4 6 9 17 8 28 30 34 32 33 31 24 17 13 12 12 10 4 6 3 9 11 13 14 10 2 4 4 2 6 11 13 15 14 13 12 12 13 16 14 17
24 16 18 13 5 2 6 7 6 7 8 5 7 21 35 34 33 32 26 21 16 15 15 13 8 5 2 1 6 8 13 11 8 5 4 6 1 7 13 16 17 14 15 11 9 12 19 13 19
19 12 7 3 1 6 5 4 9 10 9 7 8 17 31 32 32 31 28 23 19 18 15 12 9 6 3 3 4 6 8 8 7 6 4 5 4 7 16 18 20 15 14 13 11 11 11 15 17
16 14 6 8 4 7 7 9 17 12 12 20 23 26 29 32 33 31 27 24 20 18 16 11 9 6 6 5 1 4 7 5 9 8 7 3 4 9 14 17 17 13 13 13 11 15 15 17 17
21 10 12 5 2 2 5 8 5 7 9 9 19 29 29 31 32 30 26 24 21 18 16 12 10 7 6 4 3 1 7 5 6 6 10 8 8 11 11 13 13 15 14 15 16 17 19 18 22
23 7 6 2 7 6 6 6 4 9 10 7 13 20 28 31 30 29 28 23 20 18 14 12 9 9 8 2 7 3 4 6 8 7 8 8 11 8 10 11 13 16 19 20 18 17 20 22 23
12 5 4 7 6 5 3 7 8 10 9 15 15 28 32 33 31 30 28 23 20 18 14 14 12 9 9 7 7 5 4 4 7 9 8 8 10 9 13 13 17 18 19 21 20 21 21 21 22
9 8 8 8 6 5 5 6 6 11 11 10 20 28 31 33 31 31 28 25 20 18 14 13 13 12 9 7 10 7 5 2 7 8 9 5 6 10 13 14 20 20 22 21 21 24 23 22 20
Wind_Direction
170 152 161 256 15 142 260 283 302 358 56 60 53 68 21 63 89 169 142 160 152 180 213 241 268 294 293 300 303 293 281 283 289 291 289 289 295 294 274 278 286 286 288 281 267 253 246 233 233
176 138 204 274 167 286 284 316 304 63 133 93 62 158 101 56 110 133 144 168 177 211 261 269 283 285 286 298 297 288 279 279 280 283 279 285 288 288 278 274 277 276 277 276 268 255 248 240 238
184 164 285 194 215 221 267 238 326 19 15 114 140 113 81 126 128 151 160 179 219 283 286 271 273 275 291 294 288 281 274 272 271 276 279 279 278 277 275 271 270 270 268 268 268 256 250 244 235
161 254 261 237 257 263 222 283 315 16 340 189 154 106 101 143 145 155 159 175 216 243 246 239 256 274 291 287 283 282 271 268 271 271 275 277 273 272 271 271 270 269 263 261 261 259 247 240 232
252 263 226 259 267 275 279 245 59 4 325 44 134 151 115 139 151 170 173 179 191 205 220 244 265 286 297 297 291 283 267 265 267 271 274 274 269 272 269 267 269 267 261 260 255 251 241 233 230
261 241 302 278 284 304 280 41 336 351 309 22 34 104 149 159 169 167 184 186 194 216 228 251 269 289 303 299 295 294 284 277 276 277 278 276 274 272 272 273 269 265 260 256 253 244 241 230 229
232 290 259 275 287 306 304 130 226 268 231 123 84 43 144 175 173 175 193 205 200 220 254 265 281 301 309 303 305 303 300 289 287 287 281 275 272 273 276 272 268 263 257 250 243 240 231 232 227
236 247 278 274 285 284 294 246 225 240 227 163 210 164 178 186 180 187 207 218 226 305 252 286 297 299 286 287 299 303 300 296 300 301 297 283 276 278 273 264 262 259 253 240 235 234 226 232 225
237 250 261 264 270 276 307 348 334 325 320 243 251 201 183 176 193 198 188 203 238 227 230 261 267 265 270 281 300 293 292 303 306 313 305 292 292 293 280 258 263 257 253 236 233 229 224 227 225
232 233 248 258 269 277 299 322 326 335 317 297 248 156 167 192 197 201 187 196 213 212 200 203 238 267 280 294 283 277 278 292 294 300 300 290 299 290 278 250 250 265 257 234 227 224 218 223 223
236 240 251 255 260 271 285 315 312 307 292 289 166 174 190 203 202 201 209 232 223 205 204 222 255 276 296 305 288 269 278 296 297 309 287 318 305 281 274 254 264 260 255 237 225 217 213 218 224
249 245 250 256 259 258 255 301 292 282 274 285 277 170 200 201 198 204 204 219 186 201 222 237 279 294 309 309 307 300 279 280 288 292 292 302 308 282 267 274 268 270 257 243 226 214 214 218 224
243 248 254 260 265 260 281 272 266 268 275 298 201 186 201 214 213 213 215 212 207 208 226 259 285 299 313 318 330 333 312 301 290 287 277 282 292 306 277 272 259 263 252 239 225 216 216 212 219
249 254 253 255 264 258 260 263 261 258 262 271 212 210 214 229 226 209 204 210 214 223 245 267 279 312 320 317 331 344 338 322 310 290 274 285 276 297 293 279 267 255 243 230 222 222 215 205 199
260 264 273 266 266 260 252 254 254 269 242 256 216 230 240 229 222 215 211 223 228 236 256 269 289 311 322 324 341 329 329 319 318 293 281 280 276 281 289 280 268 265 240 226 220 218 211 207 200
276 260 258 253 265 260 243 258 239 244 241 239 237 248 226 216 220 217 219 219 220 230 247 260 287 284 292 317 327 336 319 312 322 311 292 294 276 270 273 273 274 279 247 229 221 212 206 208 203
258 260 262 268 246 259 226 247 244 221 236 254 235 245 222 232 221 219 207 209 221 220 230 243 269 269 257 291 347 327 315 314 315 314 312 292 284 269 267 267 278 282 261 222 216 208 207 200 202
235 257 253 256 259 256 258 261 199 205 219 233 253 244 230 221 200 190 198 206 216 222 222 238 255 255 278 309 348 336 330 321 308 318 322 303 286 255 250 255 280 266 240 199 202 202 203 201 195
242 248 249 254 257 250 273 271 217 210 213 229 247 269 276 216 187 184 198 201 209 213 218 239 246 276 283 313 327 332 344 333 311 318 325 323 293 254 246 238 243 217 205 189 194 187 189 183 188
228 249 261 274 278 265 214 245 236 206 208 239 249 258 258 174 167 185 192 197 209 205 208 222 232 244 284 276 307 316 335 333 314 314 308 315 300 250 216 212 194 167 168 182 184 196 187 193 187
239 232 250 258 275 284 289 320 296 235 234 256 256 252 181 175 173 182 190 194 200 200 197 205 213 228 280 146 318 319 332 350 335 315 333 323 283 188 183 174 168 160 168 173 188 190 198 188 188
239 223 236 249 258 253 101 276 302 301 289 280 265 151 164 174 182 187 190 190 197 195 192 201 203 241 262 301 321 350 8 348 346 315 336 356 112 154 155 155 150 133 145 164 168 176 184 191 188
241 224 230 240 249 225 275 291 253 277 283 286 171 161 172 176 186 189 188 186 188 186 194 187 216 233 236 313 355 4 347 351 357 350 6 27 130 162 156 159 145 141 134 154 157 158 173 177 184
231 232 240 243 196 263 212 182 263 235 240 198 169 174 175 175 180 182 179 179 179 183 194 197 201 214 250 119 350 340 1 11 38 69 38 22 160 160 162 165 162 159 146 154 155 153 167 166 181
222 218 243 314 344 228 216 278 236 260 230 163 130 144 165 170 171 171 174 174 173 183 195 195 188 229 167 164 308 340 5 25 39 31 37 27 90 146 167 167 170 165 162 161 168 157 156 158 167
225 198 176 200 168 250 243 238 249 220 162 117 138 143 155 162 168 171 173 172 176 185 195 201 183 188 150 169 14 344 15 42 41 42 44 40 99 136 155 168 171 174 161 170 161 156 163 157 163
240 202 182 139 212 248 238 276 224 158 127 127 130 138 149 160 165 166 170 175 179 189 196 187 182 190 158 200 109 50 19 56 43 38 35 69 99 136 146 160 170 172 173 158 160 162 164 162 155
211 173 137 76 194 263 291 306 225 151 172 160 135 138 152 160 164 167 172 175 181 191 191 173 180 179 179 170 118 133 48 49 35 37 32 91 100 110 143 154 151 152 152 154 157 155 153 142 144
217 173 123 131 151 179 233 268 207 175 161 145 150 152 158 164 165 169 171 175 182 190 190 178 182 184 183 158 148 135 104 57 35 55 68 104 104 90 131 135 146 147 147 153 155 149 147 150 147
189 159 150 173 227 225 178 272 140 141 152 133 147 156 163 166 167 170 171 174 180 189 196 187 182 182 183 169 141 133 145 115 86 80 72 90 126 115 130 135 144 145 144 151 158 158 149 139 137